Terug naar catalogus

SJ-9B

ActiefWetenschapSSO
NORAD 38861·PAYLOAD·🇨🇳 China

Gelanceerd Oct 14, 2012 vanaf Taiyuan Satellite Launch Center

Loading…

Volgende Passages (komende 24 uur)

TLE

VersSource: Space-Track

Epoch: Sep 14, 2026, 09:48 UTC

1 38861U 12056B   26257.40840183  .00001322  00000-0  13696-3 0  9996
2 38861  97.6086 238.3257 0013540 279.5740  80.3949 14.91597011753029

Volg SJ-9B in realtime met AllMySat

Download on the App Store